sat.trackr.live / text

‹ back to catalog

STARLINK-35499

NORAD 66462 · 2025-262G

PAYLOAD ACTIVE UNKNOWN

§ Identity

Operator
Country
US
Launch date
2025-11-15
Launch site
AFETR
Launch vehicle
Mass (kg)
RCS (m²)

Purposes: comms

External: N2YO · Heavens-Above · Gunter

§ Orbital elements

Epoch: 2026-05-25T05:12:34.848000Z

Period
94.27 min
Inclination
42.9998°
Eccentricity
0.0001306
Mean motion
15.27591956 rev/d
Perigee alt
482.1 km
Apogee alt
483.9 km
Semi-major
6,861.2 km
B*
4.8891e-4
RAAN
223.6974°
Arg perigee
254.3506°
Mean anomaly
105.7201°
Rev number
3,061

§ Raw data

STARLINK-354991 66462U 25262G   26145.21707000  .00013221  00000+0  48891-3 0  99972 66462  42.9998 223.6974 0001306 254.3506 105.7201 15.27591956 30611

JSON: /api/v1/satellites/66462 · /tle

For live sub-satellite position, see the globe view (requires WebGL).

§ Visibility from observer

Set your observer location to see the next 7 days of passes ≥ 10°. The values pass through the URL so the page stays shareable.

No JS? Fill the form by hand. The geolocation button needs JavaScript.